BEL5MQ EDDH-EBBR

Flight info

Callsign BEL5MQ
Flight time 0h 55m
Altitude 36000
Route ELSOB L619 OSTOR DCT ABFAD DCT OGFON N872 LILSI/N0448F350 Z310 WOODY
Aircraft A320/M-DE3FGHIJ1LORVWY/H

Departure

Time 2026-05-06 17:29
Airport Hamburg Helmut Schmidt Airport (EDDH)

Arrival

Time 2026-05-06 18:24
Airport Brussels Airport (EBBR)
Time Latitude Longitude Altitude Speed Heading
2026-05-06 16:57 53.63413 10.00335 48 ft 0 kts 86°
2026-05-06 17:18 53.63412 10.00312 44 ft 2 kts 84°
2026-05-06 17:18 53.63411 10.00285 49 ft 2 kts 86°
2026-05-06 17:18 53.63410 10.00257 46 ft 2 kts 88°
2026-05-06 17:18 53.63413 10.00230 46 ft 2 kts 150°
2026-05-06 17:19 53.63425 10.00222 43 ft 1 kts 176°
2026-05-06 17:19 53.63427 10.00221 43 ft 0 kts 177°
2026-05-06 17:21 53.63424 10.00222 43 ft 4 kts 177°
2026-05-06 17:21 53.63358 10.00229 47 ft 10 kts 176°
2026-05-06 17:21 53.63290 10.00237 49 ft 9 kts 175°
2026-05-06 17:21 53.63227 10.00245 49 ft 9 kts 176°
2026-05-06 17:22 53.63169 10.00252 49 ft 8 kts 176°
2026-05-06 17:22 53.63115 10.00259 49 ft 7 kts 176°
2026-05-06 17:22 53.63066 10.00258 49 ft 7 kts 193°
2026-05-06 17:22 53.63028 10.00219 49 ft 6 kts 214°
2026-05-06 17:23 53.62995 10.00183 46 ft 6 kts 212°
2026-05-06 17:23 53.62942 10.00126 49 ft 11 kts 213°
2026-05-06 17:23 53.62881 10.00059 46 ft 10 kts 214°
2026-05-06 17:23 53.62848 9.99969 48 ft 7 kts 242°
2026-05-06 17:24 53.62843 9.99954 46 ft 0 kts 242°
2026-05-06 17:24 53.62841 9.99948 46 ft 0 kts 242°
2026-05-06 17:27 53.62814 9.99857 46 ft 14 kts 243°
2026-05-06 17:27 53.62812 9.99794 45 ft 3 kts 353°
2026-05-06 17:27 53.62819 9.99787 45 ft 0 kts 331°
2026-05-06 17:28 53.62820 9.99787 45 ft 2 kts 331°
2026-05-06 17:28 53.63009 9.99621 45 ft 74 kts 333°
2026-05-06 17:28 53.63694 9.99034 48 ft 144 kts 333°
2026-05-06 17:29 53.64635 9.98207 629 ft 153 kts 336°
2026-05-06 17:29 53.65599 9.97384 1448 ft 156 kts 337°
2026-05-06 17:29 53.66586 9.96547 2194 ft 167 kts 337°
2026-05-06 17:29 53.67695 9.95612 2709 ft 191 kts 337°
2026-05-06 17:30 53.68958 9.94542 3364 ft 211 kts 336°
2026-05-06 17:30 53.70283 9.93385 4325 ft 218 kts 331°
2026-05-06 17:30 53.71308 9.91475 5285 ft 229 kts 292°
2026-05-06 17:30 53.71456 9.88706 5978 ft 254 kts 261°
2026-05-06 17:31 53.71003 9.85700 6750 ft 271 kts 252°
2026-05-06 17:31 53.70376 9.82678 7832 ft 275 kts 250°
2026-05-06 17:31 53.69701 9.79644 8989 ft 277 kts 250°
2026-05-06 17:31 53.69020 9.76562 9606 ft 281 kts 250°
2026-05-06 17:32 53.68354 9.73461 9821 ft 281 kts 251°
2026-05-06 17:32 53.67697 9.70280 9892 ft 304 kts 252°
2026-05-06 17:32 53.66989 9.66764 9894 ft 324 kts 252°
2026-05-06 17:32 53.66345 9.63080 10043 ft 336 kts 260°
2026-05-06 17:33 53.66185 9.59175 11026 ft 337 kts 272°
2026-05-06 17:33 53.66528 9.55259 12073 ft 340 kts 284°
2026-05-06 17:33 53.67414 9.51528 13031 ft 346 kts 297°
2026-05-06 17:33 53.68618 9.47982 13953 ft 351 kts 298°
2026-05-06 17:34 53.69834 9.44376 14784 ft 355 kts 296°
2026-05-06 17:34 53.70623 9.40430 15597 ft 358 kts 278°
2026-05-06 17:34 53.70587 9.36227 16424 ft 361 kts 258°
2026-05-06 17:34 53.69882 9.32135 17283 ft 364 kts 252°
2026-05-06 17:35 53.69107 9.28038 18139 ft 367 kts 252°
2026-05-06 17:35 53.68321 9.23913 18882 ft 371 kts 252°
2026-05-06 17:35 53.67538 9.19801 19616 ft 374 kts 252°
2026-05-06 17:36 53.65936 9.11356 21117 ft 381 kts 252°
2026-05-06 17:36 53.65123 9.07080 21845 ft 384 kts 252°
2026-05-06 17:36 53.64300 9.02767 22561 ft 387 kts 252°
2026-05-06 17:36 53.63477 8.98466 23260 ft 390 kts 252°
2026-05-06 17:37 53.62639 8.94089 23857 ft 394 kts 252°
2026-05-06 17:37 53.61795 8.89691 24423 ft 397 kts 252°
2026-05-06 17:37 53.60944 8.85257 24972 ft 399 kts 251°
2026-05-06 17:37 53.60088 8.80786 25516 ft 402 kts 251°
2026-05-06 17:38 53.59223 8.76288 26038 ft 405 kts 251°
2026-05-06 17:38 53.58348 8.71763 26560 ft 408 kts 251°
2026-05-06 17:38 53.57465 8.67212 27066 ft 411 kts 251°
2026-05-06 17:38 53.56572 8.62630 27562 ft 413 kts 251°
2026-05-06 17:39 53.55672 8.58014 28047 ft 416 kts 251°
2026-05-06 17:39 53.54769 8.53381 28517 ft 419 kts 251°
2026-05-06 17:39 53.53853 8.48702 28972 ft 421 kts 250°
2026-05-06 17:39 53.52931 8.44010 29416 ft 424 kts 250°
2026-05-06 17:40 53.52000 8.39297 29837 ft 427 kts 250°
2026-05-06 17:40 53.51061 8.34540 30199 ft 429 kts 250°
2026-05-06 17:40 53.50119 8.29782 30540 ft 431 kts 250°
2026-05-06 17:40 53.49167 8.24999 30870 ft 432 kts 250°
2026-05-06 17:41 53.48213 8.20219 31290 ft 431 kts 250°
2026-05-06 17:41 53.47262 8.15457 31735 ft 429 kts 250°
2026-05-06 17:41 53.46314 8.10714 32187 ft 428 kts 250°
2026-05-06 17:41 53.45369 8.05994 32638 ft 426 kts 250°
2026-05-06 17:42 53.44422 8.01274 33072 ft 425 kts 250°
2026-05-06 17:42 53.43491 7.96642 33507 ft 424 kts 250°
2026-05-06 17:42 53.42550 7.91968 33942 ft 422 kts 250°
2026-05-06 17:42 53.41610 7.87294 34312 ft 422 kts 250°
2026-05-06 17:43 53.40670 7.82639 34656 ft 422 kts 250°
2026-05-06 17:43 53.39722 7.77971 34998 ft 422 kts 250°
2026-05-06 17:43 53.38771 7.73313 35347 ft 423 kts 250°
2026-05-06 17:43 53.37812 7.68639 35581 ft 426 kts 250°
2026-05-06 17:44 53.36844 7.63930 35732 ft 430 kts 250°
2026-05-06 17:44 53.35870 7.59183 35886 ft 431 kts 250°
2026-05-06 17:44 53.33918 7.49725 35918 ft 432 kts 250°
2026-05-06 17:45 53.31961 7.40249 35920 ft 432 kts 250°
2026-05-06 17:45 53.29991 7.30738 35918 ft 433 kts 250°
2026-05-06 17:46 53.28002 7.21200 35921 ft 433 kts 250°
2026-05-06 17:46 53.26018 7.11752 35920 ft 433 kts 249°
2026-05-06 17:47 53.24011 7.02269 35918 ft 433 kts 249°
2026-05-06 17:47 53.22001 6.92805 35919 ft 434 kts 249°
2026-05-06 17:48 53.19988 6.83323 35917 ft 434 kts 249°
2026-05-06 17:48 53.17949 6.73802 35920 ft 434 kts 249°
2026-05-06 17:49 53.15334 6.64793 35915 ft 433 kts 234°
2026-05-06 17:49 53.11495 6.57058 35916 ft 433 kts 230°
2026-05-06 17:50 53.07608 6.49452 35912 ft 433 kts 230°
2026-05-06 17:50 53.03677 6.41814 35914 ft 434 kts 229°
2026-05-06 17:51 52.99765 6.34250 35912 ft 434 kts 229°
2026-05-06 17:51 52.95832 6.26640 35915 ft 435 kts 229°
2026-05-06 17:52 52.91893 6.19035 35915 ft 435 kts 229°
2026-05-06 17:52 52.87928 6.11429 35924 ft 435 kts 229°
2026-05-06 17:53 52.83958 6.03846 35918 ft 436 kts 229°
2026-05-06 17:53 52.79985 5.96267 35917 ft 436 kts 229°
2026-05-06 17:54 52.76010 5.88690 35915 ft 437 kts 229°
2026-05-06 17:54 52.72026 5.81124 35918 ft 437 kts 229°
2026-05-06 17:55 52.68023 5.73565 35913 ft 437 kts 229°
2026-05-06 17:55 52.64039 5.66068 35914 ft 438 kts 229°
2026-05-06 17:56 52.59998 5.58472 35914 ft 438 kts 229°
2026-05-06 17:56 52.56001 5.50996 35913 ft 439 kts 229°
2026-05-06 17:57 52.51963 5.43468 35906 ft 439 kts 229°
2026-05-06 17:57 52.47688 5.36356 35941 ft 438 kts 218°
2026-05-06 17:58 52.42340 5.31676 35944 ft 438 kts 202°
2026-05-06 17:58 52.36653 5.28129 35944 ft 437 kts 202°
2026-05-06 17:59 52.30989 5.24543 35938 ft 436 kts 202°
2026-05-06 17:59 52.25332 5.20967 35934 ft 436 kts 202°
2026-05-06 18:00 52.19669 5.17412 35924 ft 436 kts 202°
2026-05-06 18:00 52.14013 5.13884 35922 ft 436 kts 202°
2026-05-06 18:01 52.08349 5.10361 35921 ft 436 kts 202°
2026-05-06 18:01 52.02679 5.06840 35913 ft 436 kts 202°
2026-05-06 18:02 51.97014 5.03335 35915 ft 436 kts 202°
2026-05-06 18:02 51.91342 4.99836 35909 ft 436 kts 202°
2026-05-06 18:03 51.85668 4.96335 35905 ft 436 kts 202°
2026-05-06 18:03 51.82827 4.94586 35785 ft 438 kts 202°
2026-05-06 18:03 51.80018 4.92859 35554 ft 437 kts 202°
2026-05-06 18:04 51.77174 4.91117 35312 ft 437 kts 202°
2026-05-06 18:04 51.74293 4.89358 35064 ft 437 kts 201°
2026-05-06 18:04 51.71481 4.87644 34822 ft 437 kts 201°
2026-05-06 18:04 51.68634 4.85904 34580 ft 438 kts 201°
2026-05-06 18:05 51.65786 4.84166 34342 ft 438 kts 201°
2026-05-06 18:05 51.62938 4.82424 34106 ft 437 kts 202°
2026-05-06 18:05 51.60200 4.80333 33862 ft 436 kts 211°
2026-05-06 18:05 51.57708 4.77572 33463 ft 435 kts 219°
2026-05-06 18:06 51.55511 4.74201 32240 ft 439 kts 229°
2026-05-06 18:06 51.53728 4.70223 31340 ft 439 kts 238°
2026-05-06 18:06 51.52130 4.66022 30080 ft 444 kts 238°
2026-05-06 18:06 51.50501 4.61815 28850 ft 445 kts 238°
2026-05-06 18:07 51.48860 4.57634 28016 ft 439 kts 238°
2026-05-06 18:07 51.47242 4.53544 27235 ft 431 kts 237°
2026-05-06 18:07 51.45620 4.49528 26473 ft 426 kts 234°
2026-05-06 18:07 51.43574 4.46160 25783 ft 420 kts 217°
2026-05-06 18:08 51.41009 4.43995 25087 ft 417 kts 200°
2026-05-06 18:08 51.38243 4.42608 24333 ft 415 kts 198°
2026-05-06 18:08 51.35486 4.41304 23623 ft 412 kts 198°
2026-05-06 18:08 51.32749 4.40020 22829 ft 408 kts 198°
2026-05-06 18:09 51.30060 4.38762 21737 ft 401 kts 198°
2026-05-06 18:09 51.27401 4.37521 20634 ft 396 kts 198°
2026-05-06 18:09 51.24769 4.36292 19596 ft 391 kts 197°
2026-05-06 18:09 51.22174 4.35081 18981 ft 377 kts 198°
2026-05-06 18:10 51.19773 4.33966 18858 ft 351 kts 198°
2026-05-06 18:10 51.17501 4.32918 18735 ft 328 kts 198°
2026-05-06 18:10 51.15373 4.31944 18552 ft 310 kts 198°
2026-05-06 18:10 51.13295 4.30993 17839 ft 311 kts 198°
2026-05-06 18:11 51.11218 4.30044 17183 ft 309 kts 198°
2026-05-06 18:11 51.09853 4.29423 16771 ft 307 kts 198°
2026-05-06 18:11 51.07125 4.28185 15882 ft 303 kts 198°
2026-05-06 18:11 51.05109 4.27276 15258 ft 300 kts 198°
2026-05-06 18:12 51.03105 4.26376 14629 ft 298 kts 198°
2026-05-06 18:12 51.01790 4.25788 14229 ft 296 kts 198°
2026-05-06 18:12 50.99108 4.24593 13087 ft 302 kts 198°
2026-05-06 18:12 50.97115 4.23699 12343 ft 300 kts 198°
2026-05-06 18:13 50.95112 4.22791 11611 ft 298 kts 197°
2026-05-06 18:13 50.93128 4.21880 10902 ft 296 kts 198°
2026-05-06 18:13 50.91152 4.20962 10199 ft 294 kts 197°
2026-05-06 18:13 50.89198 4.20045 9475 ft 292 kts 198°
2026-05-06 18:14 50.87918 4.19440 9044 ft 287 kts 198°
2026-05-06 18:14 50.86038 4.18553 8513 ft 277 kts 198°
2026-05-06 18:14 50.84225 4.17703 7997 ft 267 kts 198°
2026-05-06 18:14 50.82472 4.16882 7487 ft 259 kts 198°
2026-05-06 18:15 50.80767 4.16087 6977 ft 251 kts 198°
2026-05-06 18:15 50.79088 4.15302 6491 ft 253 kts 198°
2026-05-06 18:15 50.77398 4.14579 5984 ft 251 kts 189°
2026-05-06 18:15 50.75684 4.14866 5452 ft 250 kts 157°
2026-05-06 18:16 50.74312 4.16469 4938 ft 246 kts 125°
2026-05-06 18:16 50.73595 4.18846 4360 ft 239 kts 105°
2026-05-06 18:16 50.73137 4.21338 3836 ft 234 kts 103°
2026-05-06 18:16 50.72713 4.23787 3399 ft 229 kts 103°
2026-05-06 18:17 50.72299 4.26206 3094 ft 227 kts 102°
2026-05-06 18:17 50.71891 4.28580 2859 ft 218 kts 103°
2026-05-06 18:17 50.71504 4.30826 2742 ft 208 kts 102°
2026-05-06 18:17 50.71129 4.32985 2599 ft 201 kts 102°
2026-05-06 18:18 50.70765 4.35077 2471 ft 195 kts 102°
2026-05-06 18:18 50.70402 4.37136 2288 ft 195 kts 103°
2026-05-06 18:18 50.70043 4.39179 2119 ft 191 kts 103°
2026-05-06 18:18 50.69790 4.41175 2020 ft 180 kts 82°
2026-05-06 18:19 50.70365 4.42773 2002 ft 170 kts 29°
2026-05-06 18:19 50.71503 4.42973 2010 ft 171 kts 346°
2026-05-06 18:19 50.72660 4.42562 1986 ft 170 kts
2026-05-06 18:19 50.73767 4.43162 2016 ft 171 kts 21°
2026-05-06 18:20 50.74913 4.43610 2011 ft 170 kts 13°
2026-05-06 18:20 50.76063 4.44033 2008 ft 170 kts 14°
2026-05-06 18:20 50.77214 4.44483 2005 ft 170 kts 15°
2026-05-06 18:20 50.78312 4.44923 2033 ft 154 kts 15°
2026-05-06 18:21 50.79293 4.45319 1996 ft 137 kts 15°
2026-05-06 18:21 50.80168 4.45674 1928 ft 126 kts 14°
2026-05-06 18:21 50.81003 4.46013 1793 ft 122 kts 15°
2026-05-06 18:21 50.81821 4.46345 1648 ft 121 kts 15°
2026-05-06 18:22 50.82625 4.46672 1489 ft 120 kts 15°
2026-05-06 18:22 50.83435 4.47001 1338 ft 120 kts 15°
2026-05-06 18:22 50.84241 4.47329 1134 ft 120 kts 16°
2026-05-06 18:22 50.85046 4.47655 1037 ft 119 kts 14°
2026-05-06 18:23 50.85856 4.47970 872 ft 120 kts 15°
2026-05-06 18:23 50.86656 4.48301 673 ft 118 kts 15°
2026-05-06 18:23 50.87456 4.48634 491 ft 118 kts 14°
2026-05-06 18:23 50.88250 4.48956 348 ft 117 kts 15°
2026-05-06 18:24 50.89037 4.49278 186 ft 114 kts 15°
2026-05-06 18:24 50.89673 4.49543 152 ft 70 kts 14°
2026-05-06 18:24 50.90075 4.49706 132 ft 54 kts 15°
2026-05-06 18:24 50.90409 4.49843 127 ft 45 kts 14°
2026-05-06 18:25 50.90664 4.49933 122 ft 30 kts
2026-05-06 18:25 50.90841 4.49888 121 ft 22 kts 339°
2026-05-06 18:25 50.90887 4.49735 121 ft 16 kts 289°
2026-05-06 18:25 50.90877 4.49602 120 ft 12 kts 244°
2026-05-06 18:26 50.90842 4.49487 123 ft 11 kts 244°
2026-05-06 18:26 50.90809 4.49372 122 ft 12 kts 245°
2026-05-06 18:26 50.90774 4.49250 120 ft 12 kts 245°
2026-05-06 18:26 50.90738 4.49125 120 ft 13 kts 245°
2026-05-06 18:27 50.90701 4.48993 120 ft 13 kts 245°
2026-05-06 18:27 50.90662 4.48862 119 ft 13 kts 245°
2026-05-06 18:27 50.90631 4.48753 118 ft 9 kts 245°
2026-05-06 18:27 50.90614 4.48696 119 ft 0 kts 245°
2026-05-06 18:28 50.90614 4.48694 119 ft 1 kts 245°
2026-05-06 18:28 50.90596 4.48632 121 ft 8 kts 245°
2026-05-06 18:28 50.90570 4.48598 118 ft 0 kts 201°
2026-05-06 18:31 50.90555 4.48600 120 ft 9 kts 184°
2026-05-06 18:31 50.90497 4.48559 119 ft 9 kts 230°
2026-05-06 18:31 50.90470 4.48471 120 ft 9 kts 245°
2026-05-06 18:31 50.90423 4.48450 98 ft 8 kts 159°
2026-05-06 18:32 50.90389 4.48473 118 ft 1 kts 156°
2026-05-06 18:32 50.90379 4.48481 120 ft 0 kts 156°